Voltar ao catálogo

KINEIS-5D

AtivoComunicaçõesSSO
NORAD 62082·PAYLOAD·🇫🇷 France

Lançado Nov 25, 2024 de Rocket Lab Launch Complex 1

Loading…

Próximas Passagens (próximas 24 horas)

TLE

AtualizadoSource: Space-Track

Época: Sep 14, 2026, 22:07 UTC

1 62082U 24219B   26257.92209822  .00000717  00000-0  12034-3 0  9990
2 62082  97.9265  54.5134 0004724   1.8488 358.2737 14.72583039 96963

Acompanhe KINEIS-5D em tempo real com AllMySat

Download on the App Store